[[{"header":{"parameterUnit":"m.s-1","parameterCategory":1,"la1":30.2991,"la2":30.254,"lo1":-89.0895,"lo2":-89.0444,"dx":0.0017,"dy":0.0017,"nx":28,"ny":28,"refTime":"2022-11-08T09:00:00:Z","depth":0,"parameterNumber":2,"parameterNumberName":"U-component_of_WINDS"},"data":[0,0,0,0,0,0,0,0,0,0,0,0,0,0,0,0,0,0,0,0,0,0,0,0,0,0,0,0,0,0,0,0,0,0,0,0,0,0,0,0,0,0,0,0,0,0,0,0,0,0,0,0,0,0,0,0,0,0,-0.6958,-0.6957,0,-0.6805,-0.6803,-0.6801,-0.6788,-0.679,-0.6792,-0.6793,-0.6635,-0.663,-0.6624,0,0,0,0,0,0,0,0,0,0,0,0,0,-0.7241,-0.7236,-0.6958,-0.6956,-0.6954,-0.6805,-0.6803,-0.6801,-0.6788,-0.679,-0.6792,-0.6794,-0.6637,-0.6631,-0.6624,0,0,0,0,0,0,0,0,0,0,0,0,0,-0.7106,-0.7234,-0.6959,-0.693,-0.6926,-0.6805,-0.6803,-0.68,-0.6787,-0.679,-0.6792,-0.6795,-0.664,-0.6631,-0.6623,-0.652,0,0,-0.6596,-0.6593,0,0,0,0,0,0,0,0,-0.7113,-0.7095,-0.6936,-0.6932,-0.6927,-0.6818,-0.6845,-0.6706,-0.6787,-0.684,-0.6793,-0.6796,-0.6694,-0.6681,-0.6647,-0.6513,-0.6506,-0.6596,-0.659,-0.6587,-0.6584,0,0,0,0,0,0,0,-0.7123,-0.7102,-0.6898,-0.6934,-0.6928,-0.6925,-0.6909,-0.6818,-0.6755,-0.6836,-0.6834,-0.6816,-0.6692,-0.6655,-0.6643,-0.6504,-0.6596,-0.6588,-0.6583,-0.658,-0.6278,-0.6275,0,0,0,0,0,0,-0.7138,-0.711,-0.6902,-0.6893,-0.7028,-0.6918,-0.69,-0.6851,-0.6756,-0.6744,-0.6814,-0.6816,-0.6669,-0.6653,-0.6638,-0.6512,-0.6587,-0.6579,-0.6574,-0.6281,-0.6278,-0.6274,0,0,0,0,0,0,-0.7144,-0.7119,-0.6909,-0.7001,-0.6974,-0.691,-0.6856,-0.6846,-0.6809,-0.674,-0.6729,-0.6788,-0.667,-0.665,-0.655,-0.6506,-0.6575,-0.6567,-0.6284,-0.628,-0.6276,-0.6259,0,0,0,0,0,0,-0.7152,-0.7121,-0.7082,-0.7,-0.6969,-0.6823,-0.6853,-0.6841,-0.6795,-0.6796,-0.6713,-0.6701,-0.6671,-0.6563,-0.6541,-0.6495,-0.656,-0.6288,-0.6282,-0.6277,-0.6263,-0.6255,-0.6247,0,0,0,0,0,-0.7162,-0.7083,-0.708,-0.7055,-0.6918,-0.682,-0.6803,-0.6769,-0.6791,-0.6751,-0.6706,-0.6704,-0.6514,-0.6552,-0.6528,-0.6479,-0.6291,-0.6284,-0.6278,-0.6267,-0.6256,-0.6247,0,0,0,0,0,0,-0.716,-0.7071,-0.7067,-0.6959,-0.6898,-0.6819,-0.6766,-0.6759,-0.669,-0.6694,-0.6655,-0.6636,-0.6538,-0.6498,-0.6542,-0.6375,-0.6405,-0.6393,-0.6405,-0.6394,-0.6387,-0.6398,-0.6553,0,0,0,0,0,-0.7148,-0.7076,-0.7002,-0.6914,-0.6883,-0.683,-0.6786,-0.6766,-0.6701,-0.6674,-0.6623,-0.6559,-0.6485,-0.6438,-0.6366,-0.6257,-0.6239,-0.6212,-0.6204,-0.6198,-0.6188,-0.6129,-0.6116,-0.6253,-0.6253,-0.6254,0,0,-0.712,-0.7063,-0.702,-0.6912,-0.6862,-0.6789,-0.6808,-0.673,-0.6675,-0.6662,-0.6565,-0.6525,-0.6451,-0.6347,-0.6298,-0.6311,-0.6147,-0.619,-0.6185,-0.6179,-0.6121,-0.6108,-0.6097,-0.6249,-0.625,-0.6251,0,0,-0.7033,-0.6982,-0.6903,-0.6853,-0.6777,-0.6742,-0.6724,-0.6645,-0.6618,-0.652,-0.6509,-0.6444,-0.6317,-0.6266,-0.6223,-0.6117,-0.6113,-0.6095,-0.6054,-0.5996,-0.5985,-0.5976,-0.5939,-0.5926,-0.6086,-0.6086,-0.6085,0,-0.7008,-0.6898,-0.6864,-0.6786,-0.6739,-0.6724,-0.6645,-0.6597,-0.6502,-0.647,-0.6486,-0.6327,-0.6277,-0.616,-0.6135,-0.61,-0.6078,-0.6104,-0.599,-0.598,-0.597,-0.5934,-0.592,-0.6084,-0.6084,-0.6084,-0.6084,0,-0.6872,-0.6795,-0.6741,-0.6649,-0.6596,-0.6518,-0.6472,-0.6423,-0.6407,-0.6371,-0.6271,-0.6211,-0.6127,-0.6097,-0.6081,-0.5979,-0.5989,-0.5998,-0.6027,-0.5956,-0.5922,-0.5908,-0.6082,-0.6082,-0.6083,-0.6083,0,0,-0.6779,-0.667,-0.6651,-0.6609,-0.6525,-0.6465,-0.6386,-0.6304,-0.6263,-0.6198,-0.6131,-0.6025,-0.6032,-0.5984,-0.5962,-0.5911,-0.5832,-0.5926,-0.5924,-0.5911,-0.5717,-0.5711,-0.5696,-0.5829,-0.5826,-0.5824,-0.5723,0,-0.6683,-0.6542,-0.6509,-0.6389,-0.6318,-0.6303,-0.6235,-0.6176,-0.614,-0.6075,-0.6035,-0.5961,-0.5976,-0.5947,-0.5896,-0.5853,-0.5793,-0.5859,-0.5767,-0.5764,-0.5786,-0.5678,-0.5672,-0.558,-0.571,-0.5707,-0.5706,0,-0.6551,-0.6484,-0.6356,-0.6281,-0.625,-0.6189,-0.6112,-0.605,-0.5983,-0.596,-0.5907,-0.589,-0.5808,-0.5841,-0.5728,-0.5774,-0.5734,-0.5707,-0.5702,-0.5693,-0.5731,-0.5666,-0.555,-0.5536,-0.5684,-0.5686,-0.5687,0,-0.6497,-0.6374,-0.6282,-0.6247,-0.6158,-0.6115,-0.6076,-0.6011,-0.5964,-0.5897,-0.5866,-0.579,-0.5748,-0.569,-0.5653,-0.5681,-0.5543,-0.5573,-0.5523,-0.5524,-0.5495,-0.5497,-0.5371,-0.5468,-0.5468,-0.5469,-0.5469,0,-0.6394,-0.6316,-0.6257,-0.62,-0.6113,-0.6077,-0.5992,-0.5953,-0.5895,-0.5831,-0.5814,-0.5754,-0.5709,-0.5643,-0.5614,-0.5525,-0.5506,-0.5486,-0.5479,-0.5488,-0.549,-0.5461,-0.5467,-0.5465,-0.5466,-0.5466,-0.5467,0,-0.6319,-0.6276,-0.6175,-0.6098,-0.6077,-0.6017,-0.5952,-0.5896,-0.5861,-0.578,-0.5759,-0.5702,-0.5624,-0.5581,-0.5483,-0.5463,-0.5364,-0.536,-0.5387,-0.5384,-0.5337,-0.5342,-0.5188,-0.5166,-0.5278,-0.5277,-0.5276,0,-0.6256,-0.6196,-0.6114,-0.6069,-0.603,-0.5958,-0.5911,-0.5873,-0.5824,-0.5743,-0.5698,-0.5618,-0.5553,-0.5428,-0.5379,-0.5304,-0.5299,-0.525,-0.5287,-0.5298,-0.5299,-0.5303,-0.5298,-0.5244,-0.5243,-0.5242,-0.5241,0,-0.6149,-0.613,-0.6062,-0.5987,-0.5931,-0.5869,-0.5808,-0.5773,-0.5725,-0.5671,-0.5591,-0.554,-0.544,-0.5362,-0.5283,-0.5243,-0.5234,-0.523,-0.5214,-0.5223,-0.5241,-0.5231,-0.537,-0.5233,-0.5234,-0.5235,-0.5235,-0.5235,-0.6078,-0.6025,-0.5959,-0.5884,-0.5834,-0.5778,-0.5723,-0.568,-0.5612,-0.5528,-0.551,-0.5425,-0.536,-0.5254,-0.5211,-0.5145,-0.5155,-0.5132,-0.5126,-0.5122,-0.512,-0.5251,-0.513,-0.513,-0.5131,-0.5131,-0.5131,0,-0.5971,-0.5928,-0.5859,-0.5775,-0.5716,-0.5713,-0.5646,-0.5597,-0.5523,-0.5463,-0.5399,-0.5307,-0.5232,-0.5176,-0.5099,-0.5057,-0.5051,-0.5038,-0.5041,-0.5032,-0.5116,-0.5137,-0.5044,-0.5044,-0.5044,-0.5044,-0.5044,-0.5044,-0.5908,-0.5818,-0.5792,-0.5678,-0.5635,-0.5552,-0.5514,-0.5463,-0.5415,-0.5313,-0.525,-0.5215,-0.5157,-0.5075,-0.5006,-0.4992,-0.4965,-0.4952,-0.4938,-0.5017,-0.5026,-0.5035,-0.5055,-0.4946,-0.4946,-0.486,-0.4859,-0.4858]},{"header":{"parameterUnit":"m.s-1","parameterCategory":1,"la1":30.2991,"la2":30.254,"lo1":-89.0895,"lo2":-89.0444,"dx":0.0017,"dy":0.0017,"nx":28,"ny":28,"refTime":"2022-11-08T09:00:00:Z","depth":0,"parameterNumber":3,"parameterNumberName":"V-component_of_WINDS"},"data":[0,0,0,0,0,0,0,0,0,0,0,0,0,0,0,0,0,0,0,0,0,0,0,0,0,0,0,0,0,0,0,0,0,0,0,0,0,0,0,0,0,0,0,0,0,0,0,0,0,0,0,0,0,0,0,0,0,0,-0.1044,-0.1044,0,-0.1006,-0.1006,-0.1006,-0.1008,-0.1008,-0.1009,-0.1009,-0.097,-0.0969,-0.0967,0,0,0,0,0,0,0,0,0,0,0,0,0,-0.1118,-0.1117,-0.1044,-0.1044,-0.1043,-0.1007,-0.1006,-0.1005,-0.1008,-0.1008,-0.1009,-0.101,-0.0971,-0.0969,-0.0967,0,0,0,0,0,0,0,0,0,0,0,0,0,-0.1084,-0.1116,-0.1044,-0.104,-0.1039,-0.1007,-0.1006,-0.1005,-0.1008,-0.1008,-0.1009,-0.101,-0.0971,-0.0969,-0.0967,-0.0936,0,0,-0.096,-0.0959,0,0,0,0,0,0,0,0,-0.1086,-0.1081,-0.1041,-0.104,-0.1039,-0.1013,-0.1018,-0.0982,-0.1007,-0.102,-0.1009,-0.101,-0.0984,-0.098,-0.0971,-0.0934,-0.0932,-0.0959,-0.0958,-0.0957,-0.0956,0,0,0,0,0,0,0,-0.1088,-0.1083,-0.1029,-0.104,-0.1039,-0.104,-0.1036,-0.1011,-0.0997,-0.1019,-0.1019,-0.1014,-0.0983,-0.0974,-0.0971,-0.0932,-0.0959,-0.0957,-0.0956,-0.0955,-0.0869,-0.0868,0,0,0,0,0,0,-0.1091,-0.1085,-0.103,-0.1028,-0.1065,-0.1038,-0.1033,-0.102,-0.0998,-0.0995,-0.1013,-0.1014,-0.0977,-0.0973,-0.0969,-0.0933,-0.0957,-0.0955,-0.0954,-0.087,-0.0869,-0.0868,0,0,0,0,0,0,-0.1093,-0.1087,-0.1032,-0.1056,-0.1049,-0.1036,-0.1021,-0.1019,-0.101,-0.0994,-0.0991,-0.1006,-0.0978,-0.0972,-0.0945,-0.0932,-0.0954,-0.0952,-0.0871,-0.087,-0.0869,-0.086,0,0,0,0,0,0,-0.1095,-0.1087,-0.1075,-0.1056,-0.1048,-0.1008,-0.102,-0.1018,-0.1006,-0.1007,-0.0986,-0.0984,-0.0978,-0.0948,-0.0942,-0.0929,-0.095,-0.0872,-0.0871,-0.0869,-0.0862,-0.0859,-0.0856,0,0,0,0,0,-0.1098,-0.1074,-0.1075,-0.1068,-0.1033,-0.1007,-0.1003,-0.0997,-0.1005,-0.0993,-0.0983,-0.0984,-0.0934,-0.0945,-0.0939,-0.0925,-0.0873,-0.0871,-0.0869,-0.0863,-0.0859,-0.0857,0,0,0,0,0,0,-0.1091,-0.1071,-0.1072,-0.1041,-0.1026,-0.1008,-0.0993,-0.0993,-0.0975,-0.0977,-0.0969,-0.0965,-0.0938,-0.0928,-0.0941,-0.0895,-0.0905,-0.0901,-0.0902,-0.0899,-0.0896,-0.09,-0.0948,0,0,0,0,0,-0.1086,-0.1067,-0.1051,-0.1025,-0.1017,-0.1006,-0.0995,-0.0991,-0.0975,-0.0969,-0.0957,-0.0941,-0.0922,-0.0909,-0.0891,-0.086,-0.0856,-0.0847,-0.0844,-0.0842,-0.084,-0.0825,-0.0821,-0.0862,-0.0862,-0.0862,0,0,-0.1076,-0.1062,-0.1051,-0.1023,-0.1011,-0.0992,-0.1001,-0.098,-0.0966,-0.0966,-0.094,-0.093,-0.0912,-0.0883,-0.087,-0.0874,-0.0828,-0.084,-0.0838,-0.0837,-0.0822,-0.0818,-0.0815,-0.086,-0.0861,-0.0861,0,0,-0.1047,-0.1035,-0.1013,-0.1001,-0.0983,-0.0976,-0.097,-0.0952,-0.0946,-0.092,-0.092,-0.0903,-0.0869,-0.0857,-0.0846,-0.0814,-0.0816,-0.0808,-0.0795,-0.078,-0.0777,-0.0774,-0.0765,-0.0761,-0.0806,-0.0805,-0.0805,0,-0.1037,-0.1008,-0.1002,-0.0981,-0.097,-0.0969,-0.0948,-0.0936,-0.0912,-0.0905,-0.091,-0.0869,-0.0857,-0.0826,-0.0818,-0.0809,-0.0804,-0.0811,-0.0778,-0.0775,-0.0772,-0.0763,-0.0759,-0.0805,-0.0805,-0.0805,-0.0805,0,-0.0997,-0.0977,-0.0961,-0.094,-0.0926,-0.0905,-0.0896,-0.0883,-0.0881,-0.0873,-0.0847,-0.0832,-0.0811,-0.0803,-0.08,-0.0772,-0.0776,-0.078,-0.079,-0.0768,-0.0759,-0.0756,-0.0804,-0.0804,-0.0804,-0.0805,0,0,-0.0964,-0.094,-0.0934,-0.0925,-0.0905,-0.089,-0.0869,-0.0849,-0.0839,-0.0822,-0.0806,-0.0778,-0.0781,-0.0769,-0.0765,-0.0752,-0.073,-0.0757,-0.0757,-0.0754,-0.07,-0.0698,-0.0694,-0.073,-0.0729,-0.0728,-0.0702,0,-0.0935,-0.0899,-0.0893,-0.0861,-0.0844,-0.0843,-0.0825,-0.0811,-0.0803,-0.0787,-0.0778,-0.076,-0.0765,-0.0758,-0.0745,-0.0735,-0.0719,-0.0737,-0.0715,-0.0714,-0.0721,-0.0689,-0.0687,-0.0663,-0.0698,-0.0697,-0.0697,0,-0.0897,-0.0881,-0.0848,-0.0832,-0.0824,-0.0808,-0.079,-0.0774,-0.0758,-0.0754,-0.0741,-0.0738,-0.0717,-0.0727,-0.0699,-0.0711,-0.0702,-0.0696,-0.0695,-0.0694,-0.0706,-0.0689,-0.0655,-0.0652,-0.0691,-0.0692,-0.0692,0,-0.0879,-0.0849,-0.0826,-0.0817,-0.0798,-0.0787,-0.0778,-0.0763,-0.0752,-0.0735,-0.0728,-0.0709,-0.07,-0.0685,-0.0678,-0.0686,-0.0651,-0.066,-0.0647,-0.0648,-0.0641,-0.0642,-0.0607,-0.0632,-0.0632,-0.0632,-0.0632,0,-0.0849,-0.0829,-0.0818,-0.0804,-0.0782,-0.0775,-0.0753,-0.0744,-0.0731,-0.0716,-0.0713,-0.0698,-0.0689,-0.0673,-0.0667,-0.0645,-0.064,-0.0636,-0.0636,-0.0638,-0.0638,-0.0633,-0.0635,-0.0631,-0.0631,-0.0632,-0.0632,0,-0.0826,-0.0817,-0.0792,-0.0776,-0.0771,-0.0756,-0.0742,-0.0728,-0.072,-0.0701,-0.0695,-0.0683,-0.0665,-0.0656,-0.0632,-0.0628,-0.0604,-0.0603,-0.061,-0.061,-0.0598,-0.06,-0.0559,-0.0554,-0.0582,-0.0581,-0.0581,0,-0.0808,-0.0793,-0.0776,-0.0765,-0.0756,-0.0739,-0.0728,-0.0721,-0.0709,-0.069,-0.0679,-0.066,-0.0645,-0.0615,-0.0605,-0.0587,-0.0587,-0.0573,-0.0584,-0.0587,-0.0588,-0.059,-0.0589,-0.0572,-0.0572,-0.0572,-0.0571,0,-0.0779,-0.0775,-0.076,-0.0742,-0.0729,-0.0715,-0.0701,-0.0693,-0.0683,-0.067,-0.0651,-0.064,-0.0616,-0.0598,-0.0579,-0.057,-0.057,-0.0568,-0.0565,-0.0568,-0.0573,-0.0572,-0.0606,-0.0569,-0.057,-0.057,-0.057,-0.057,-0.0759,-0.0746,-0.0732,-0.0715,-0.0704,-0.0691,-0.0678,-0.0669,-0.0653,-0.0634,-0.063,-0.061,-0.0595,-0.0571,-0.0561,-0.0546,-0.0549,-0.0543,-0.0542,-0.0541,-0.0542,-0.0574,-0.0542,-0.0542,-0.0542,-0.0542,-0.0542,0,-0.0731,-0.0722,-0.0706,-0.0687,-0.0674,-0.0674,-0.0659,-0.0648,-0.0631,-0.0617,-0.0602,-0.0581,-0.0563,-0.0551,-0.0533,-0.0523,-0.0523,-0.0519,-0.0521,-0.0519,-0.0539,-0.0545,-0.052,-0.052,-0.052,-0.052,-0.052,-0.052,-0.0715,-0.0694,-0.0689,-0.0662,-0.0653,-0.0634,-0.0626,-0.0614,-0.0604,-0.058,-0.0566,-0.0558,-0.0545,-0.0526,-0.051,-0.0507,-0.0502,-0.0498,-0.0495,-0.0515,-0.0517,-0.0519,-0.0525,-0.0497,-0.0497,-0.0477,-0.0476,-0.0476]}]]